Powrót do katalogu

STARLINK-5615

AktywnyŁącznośćVLEO
NORAD 55425·PAYLOAD·🇺🇸 United States

Wystrzelony Jan 31, 2023 z Vandenberg Space Force Base

Loading…

Następne Przeloty (najbliższe 24 godziny)

TLE

ŚwieżeSource: CelesTrak SupGP

Epoka: Sep 14, 2026, 13:56 UTC

1 55425C 23014AL  26257.58104167  .00015031  00000+0  12598-2 0  2578
2 55425  70.0011 328.2323 0003365 274.5783 149.2470 14.98319117    10

Śledź STARLINK-5615 w czasie rzeczywistym z AllMySat

Download on the App Store